Weather History for Madison, WI

Change the Weather History Date:

Monday, December 3, 2012

  Actual Average Record
Temperature  
Mean Temperature 54 °F 27 °F  
Max Temperature 65 °F 35 °F 65 °F (2012)
Min Temperature 42 °F 20 °F -12 °F (1940)
Degree Days  
Heating Degree Days 11 38  
Month to date heating degree days 48 112  
Since 1 July heating degree days 1563 1691  
Cooling Degree Days 0 0  
Month to date cooling degree days 0 0  
Year to date cooling degree days 1068 568  
Growing Degree Days 4 (Base 50)    
Moisture  
Dew Point 50 °F    
Average Humidity 86    
Maximum Humidity 100    
Minimum Humidity 71    
Precipitation  
Precipitation 0.02 in 0.07 in 2.19 in (1990)
Month to date precipitation 0.16 0.22  
Year to date precipitation 23.92 32.96  
Snow  
Snow 0.00 in 0.40 in 17.30 in (1990)
Month to date snowfall 0.0 1.2  
Since 1 July snowfall 0.1 5.3  
Snow Depth 0.00 in    
Sea Level Pressure  
Sea Level Pressure 29.84 in    
Wind  
Wind Speed 10 mph (South)    
Max Wind Speed 18 mph    
Max Gust Speed 32 mph    
Visibility 4 miles    
Events Fog , Rain    
T = Trace of Precipitation, MM = Missing Value Source: NWS Daily Summary

Daily Weather History Graph

Daily Weather History Graph

Search for Another Location

Airport:

Trip Planner

Search our weather history database for the weather conditions in past years. The results will help you decide how hot, cold, wet, or windy it might be!

Date:

Astronomy

Dec. 03, 2012 Rise Set
Actual Time 7:11 AM CST 4:22 PM CST
Civil Twilight 6:40 AM CST 4:54 PM CST
Nautical Twilight 6:04 AM CST 5:30 PM CST
Astronomical Twilight 5:30 AM CST 6:04 PM CST
Moon 9:13 PM CST (12/3) 10:31 AM CST (12/3)
Length of Visible Light 10h 14m
Length of Day
9h 10m
Waning Gibbous, 78% of the Moon is Illuminated
Dec 3
Waning Gibbous
Dec 6
Last Quarter
Dec 13
New
Dec 19
First Quarter
Dec 28
Full

Hourly Weather History & Observations

Time (CST) Temp. Windchill Dew Point Humidity Pressure Visibility Wind Dir Wind Speed Gust Speed Precip Events Conditions
12:11 AM 42.8 °F 38.0 °F 39.2 °F 87% 30.02 in 1.8 mi SE 8.1 mph - N/A   Overcast
12:38 AM 42.8 °F 38.6 °F 41.0 °F 93% 30.01 in 0.8 mi SE 6.9 mph - N/A   Overcast
12:53 AM 42.1 °F 37.1 °F 41.0 °F 96% 30.01 in 0.5 mi SSE 8.1 mph - N/A Fog Fog
1:53 AM 43.0 °F 38.8 °F 43.0 °F 100% 29.99 in 0.5 mi South 6.9 mph - N/A Fog Fog
2:03 AM 42.8 °F 38.0 °F 42.8 °F 100% 29.98 in 0.2 mi SSE 8.1 mph - N/A Fog Fog
2:23 AM 44.6 °F 38.8 °F 42.8 °F 93% 29.97 in 0.2 mi SSE 11.5 mph - N/A Fog Fog
2:53 AM 44.1 °F 39.0 °F 44.1 °F 100% 29.97 in 0.2 mi SSE 9.2 mph - N/A Fog Fog
3:06 AM 44.6 °F 40.7 °F 44.6 °F 100% 29.96 in 0.2 mi SSE 6.9 mph - N/A Fog Fog
3:51 AM 44.6 °F 40.2 °F 44.6 °F 100% 29.93 in 0.2 mi SE 8.1 mph - N/A Fog Fog
3:53 AM 45.0 °F 40.6 °F 45.0 °F 100% 29.94 in 0.2 mi SE 8.1 mph - N/A Fog Fog
4:00 AM 44.6 °F 40.2 °F 44.6 °F 100% 29.93 in 0.2 mi SSE 8.1 mph - N/A Fog Fog
4:53 AM 46.0 °F 43.1 °F 45.0 °F 96% 29.92 in 0.2 mi SE 5.8 mph - N/A Fog Fog
5:10 AM 46.4 °F 43.5 °F 46.4 °F 100% 29.90 in 0.2 mi SE 5.8 mph - N/A Fog Fog
5:53 AM 46.0 °F 43.9 °F 46.0 °F 100% 29.91 in 0.2 mi SE 4.6 mph - N/A Fog Fog
6:53 AM 48.9 °F - 48.0 °F 97% 29.89 in 0.2 mi SSE 8.1 mph - N/A Fog Fog
7:53 AM 51.1 °F - 50.0 °F 96% 29.88 in 0.2 mi SSE 10.4 mph - N/A Fog Fog
8:53 AM 53.6 °F - 51.8 °F 94% 29.84 in 0.2 mi SSE 11.5 mph - N/A Fog Fog
9:28 AM 53.6 °F - 53.6 °F 100% 29.82 in 0.5 mi SSE 10.4 mph - N/A Fog Fog
9:53 AM 55.0 °F - 54.0 °F 96% 29.83 in 0.5 mi South 10.4 mph - N/A Fog Fog
10:30 AM 57.2 °F - 55.4 °F 94% 29.80 in 1.0 mi South 13.8 mph - N/A   Overcast
10:53 AM 57.0 °F - 55.9 °F 96% 29.79 in 1.2 mi South 15.0 mph - N/A   Overcast
11:25 AM 59.0 °F - 57.2 °F 94% 29.76 in 2.0 mi South 10.4 mph - N/A   Overcast
11:35 AM 60.8 °F - 57.2 °F 88% 29.76 in 2.0 mi South 12.7 mph - N/A   Overcast
11:53 AM 60.1 °F - 57.9 °F 93% 29.75 in 2.0 mi South 12.7 mph - N/A   Overcast
12:24 PM 60.8 °F - 57.2 °F 88% 29.72 in 2.0 mi South 13.8 mph 19.6 mph N/A   Overcast
12:53 PM 62.6 °F - 59.0 °F 88% 29.71 in 4.0 mi South 13.8 mph - N/A   Overcast
1:16 PM 62.6 °F - 59.0 °F 88% 29.70 in 5.0 mi South 10.4 mph - N/A   Overcast
1:53 PM 63.0 °F - 59.0 °F 87% 29.70 in 7.0 mi South 13.8 mph 20.7 mph N/A   Overcast
2:53 PM 64.0 °F - 59.0 °F 84% 29.71 in 8.0 mi SSW 11.5 mph - 0.00 in Rain Light Rain
3:22 PM 62.6 °F - 59.0 °F 88% 29.70 in 8.0 mi SSW 9.2 mph - 0.02 in   Overcast
3:53 PM 64.0 °F - 57.9 °F 80% 29.70 in 10.0 mi South 11.5 mph 19.6 mph 0.02 in   Mostly Cloudy
4:53 PM 64.0 °F - 57.9 °F 80% 29.69 in 10.0 mi South 11.5 mph 19.6 mph N/A   Overcast
5:53 PM 64.0 °F - 57.0 °F 78% 29.70 in 10.0 mi SSW 9.2 mph - N/A   Mostly Cloudy
6:53 PM 64.0 °F - 57.0 °F 78% 29.71 in 10.0 mi SW 9.2 mph - N/A   Overcast
7:53 PM 61.0 °F - 52.0 °F 72% 29.75 in 10.0 mi West 11.5 mph - N/A   Mostly Cloudy
8:53 PM 55.9 °F - 46.9 °F 72% 29.80 in 10.0 mi WNW 10.4 mph 17.3 mph N/A   Clear
9:53 PM 52.0 °F - 43.0 °F 71% 29.86 in 10.0 mi WNW 5.8 mph - N/A   Clear
10:53 PM 50.0 °F - 41.0 °F 71% 29.89 in 10.0 mi NW 5.8 mph - N/A   Clear
11:53 PM 46.4 °F 41.9 °F 39.2 °F 76% 29.92 in 10.0 mi WNW 9.2 mph - N/A   Clear